Home > Weather > Caracas > Past weeks

Flag for Venezuela Past Weather in Caracas, Venezuela — Yesterday and Last 2 Weeks

Now
81 °F

Passing clouds.


Feels Like: 83 °F
Forecast: 67 / 77 °F
Wind: No wind

Location: Caracas / Maiquetia Aerop. Intl. Simon Bolivar

Current Time: Aug 25, 2016 at 4:21:14 AM

Latest Report: Aug 25, 2016 at 4:00 AM


Visibility: N/A

Pressure: 29.86 "Hg (27.03 "Hg at 875m altitude)

Humidity: 62%

Dew Point: 66 °F

Location of CaracasLocation

Past Weather in Caracas — Graph

°F

Caracas Temperature Yesterday

Maximum temperature yesterday: 90 °F (at 2:00 PM)
Minimum temperature yesterday: 77 °F (at 5:00 AM)
Average temperature yesterday: 82 °F

High & Low Weather Summary for the Past Weeks

 TemperatureHumidityPressure
High90 °F (Aug 11, 3:00 PM)83% (Aug 13, 3:00 AM)29.98 "Hg (Aug 13, 3:00 AM)
Low75 °F (Aug 10, 7:00 PM)18% (Aug 11, 8:00 AM)29.80 "Hg (Aug 12, 6:00 PM)
Average82 °F58%29.90 "Hg
* Reported Aug 10 4:00 AM — Aug 25 3:00 AM, Caracas, Weather by CustomWeather, © 2016

Note: Actual official high and low records may vary slightly from our data, if they occured in-between our weather recording intervals... More about our weather records

Advertising

Caracas Weather History for the Previous 24 Hours

Scroll right to see more
 ConditionsComfort  
Time TempWeatherWind HumidityBarometerVisibility
3:00 AM
Thu, Aug 25
81 °FPassing clouds.No wind62%29.86 "HgN/A
2:00 AM81 °FPassing clouds.No wind62%29.89 "HgN/A
1:00 AM81 °FPassing clouds.No wind66%29.89 "HgN/A
12:00 AM81 °FPassing clouds.1 mph66%29.89 "HgN/A
11:00 PM
Wed, Aug 24
82 °FPassing clouds.1 mph62%29.89 "HgN/A
10:00 PM82 °FPassing clouds.No wind62%29.86 "HgN/A
9:00 PM82 °FPassing clouds.No wind62%29.86 "HgN/A
8:00 PM82 °FPassing clouds.2 mph62%29.83 "HgN/A
7:00 PM84 °FPassing clouds.1 mph55%29.83 "HgN/A
6:00 PM84 °FPassing clouds.2 mph55%29.80 "HgN/A
5:00 PM86 °FScattered clouds.5 mph52%29.80 "HgN/A
4:00 PM86 °FScattered clouds.5 mph62%29.83 "HgN/A
3:00 PM90 °FScattered clouds.5 mph55%29.86 "HgN/A
2:00 PM90 °FScattered clouds.5 mph55%29.86 "HgN/A
1:00 PM86 °FScattered clouds.7 mph62%29.89 "HgN/A
12:00 PM86 °FPartly sunny.3 mph49%29.89 "HgN/A
11:00 AM86 °FPartly sunny.7 mph62%29.92 "HgN/A
10:00 AM82 °FPartly sunny.3 mph58%29.92 "HgN/A
9:00 AM81 °FPartly sunny.3 mph62%29.92 "HgN/A
8:00 AM79 °FScattered clouds.No wind65%29.89 "HgN/A
7:00 AM77 °FScattered clouds.No wind65%29.89 "HgN/A
6:00 AM77 °FScattered clouds.No wind65%29.89 "HgN/A
5:00 AM77 °FPassing clouds.No wind65%29.89 "HgN/A
4:00 AM79 °FPassing clouds.No wind65%29.89 "HgN/A
Weather by CustomWeather, © 2016

See weather overviewHow to use our weather pages